Regional Weather Roundup
Issued by NWS

Home | Current Version | Previous Version | Graphics & Text | Print | Product List | Glossary On
Versions: 1 2 3 4 5 6 7 8 9 10 11 12 13 14 15 16 17 18 19 20 21 22 23 24 25 26 27 28 29 30 31 32 33 34 35 36 37 38 39 40 41 42 43 44 45 46 47 48 49 50
000
ASUS43 KLOT 291506
RWRIL

ILLINOIS REGIONAL WEATHER ROUNDUP
NATIONAL WEATHER SERVICE CHICAGO/ROMEOVILLE IL
1000 AM CDT TUE JUL 29 2014

NOTE: "FAIR" INDICATES FEW OR NO CLOUDS BELOW 12,000 FEET WITH NO
SIGNIFICANT WEATHER AND/OR OBSTRUCTIONS TO VISIBILITY.

* THESE STATIONS ARE NOT UNDER NWS QUALITY CONTROL. THEY ALSO MAY NOT
  REPORT WEATHER SUCH AS PRECIPITATION OR FOG.

ILZ001-002-007-009-015-016-024-291600-
NORTHWEST ILLINOIS

CITY           SKY/WX    TMP DP  RH WIND       PRES   REMARKS
MOLINE         SUNNY     71  57  61 W6        30.11F
STERLING*      SUNNY     72  59  64 NW8       30.10S
SAVANNA*       SUNNY    N/A N/A N/A W6        30.09
$$

ILZ003-004-008-010-011-017-018-291600-
NORTH CENTRAL ILLINOIS

CITY           SKY/WX    TMP DP  RH WIND       PRES   REMARKS
ROCKFORD       SUNNY     71  56  58 NW9       30.09F
FREEPORT*      SUNNY     70  60  69 N8        30.11S
ROCHELLE*      SUNNY     71  56  59 W9        30.08F
DE KALB*       SUNNY     67  56  68 NW10      30.08F
PERU*          SUNNY     70  58  65 NW8       30.10S
$$

ILZ005-006-012>014-019>023-291600-
NORTHEAST ILLINOIS

CITY           SKY/WX    TMP DP  RH WIND       PRES   REMARKS
CHICAGO-OHARE  MOSUNNY   71  52  50 NW15      30.04F
CHICAGO-MIDWAY MOSUNNY   73  56  54 W9        30.04F
AURORA         SUNNY     70  56  61 W10       30.07F
LANSING*       MOSUNNY   71  55  56 W8        30.04F
JOLIET*        SUNNY     71  53  53 W8        30.07F
WAUKEGAN       SUNNY     69  56  62 VRB6      30.03F
DUPAGE AIRPORT MOSUNNY   71  55  56 NW9       30.05F
KANKAKEE*      SUNNY     68  59  73 W6        30.07F
WHEELING       SUNNY     72  55  55 NW10      30.05S
MORRIS*        SUNNY     72  58  62 NW9       30.07S
ROMEOVILLE*    SUNNY     70  55  57 NW10      30.06F
NORTHERLY ISL    N/A     71  53  52 NW7         N/A
$$

LMZ740>746-291600-
SOUTHERN LAKE MICHIGAN

STATION/POSITION SKY/WX   TEMP    WIND        PRES    VSBY  WAVE
                          AIR SEA DIR/SP/G                  HT/PER
                          (F)     (DEG/KT/KT) (MB)    (MI)  (FT/S)
SOUTHERN BUOY              61 60  300/ 10/ 12 1016.7R         1
WAUKEGAN HARBOR            67     280/  9/ 12   N/A
HARRISON CRIB              67     320/  6/  7   N/A
BURNHAM HARBOR             71     290/  9/ 10   N/A
CALUMET HARBOR             69     290/  5/ 10 1016.1F
MICHIGAN CITY              65     230/ 13/ 15   N/A
MICHIGAN CITY 6N           65 67  270/ 10/ 14   N/A           2/ 3
ST. JOSEPH                 65 67  260/ 12/ 16   N/A           3/ 3
$$

ILZ025>027-034>036-040-047-049-050-058-095>099-291600-
WEST-CENTRAL ILLINOIS

CITY           SKY/WX    TMP DP  RH WIND       PRES   REMARKS
QUINCY         SUNNY     69  59  70 NW5       30.15R
GALESBURG*     SUNNY     71  60  68 NW7       30.12F
MACOMB*        SUNNY     69  59  71 NW7       30.15F
JACKSONVILLE*  SUNNY     72  61  70 NW3       30.14S
PITTSFIELD*    SUNNY     71  58  63 W7        30.16S
$$

ILZ028>032-037-038-041>044-048-051>054-059>061-291600-
CENTRAL ILLINOIS

CITY           SKY/WX    TMP DP  RH WIND       PRES   REMARKS
PONTIAC        SUNNY     72  57  60 NW10      30.09S
DECATUR        SUNNY     71  56  58 NW9       30.12S
PEORIA         SUNNY     73  56  54 NW8       30.12S
LACON*         SUNNY     70  56  59 W6        30.10S
LINCOLN*       SUNNY     71  57  61 NW5       30.10S
SPRINGFIELD    SUNNY     72  58  61 VRB6      30.13S
TAYLORVILLE    SUNNY     68  59  73 NW5       30.13S
$$

ILZ033-039-045-046-055>057-062-063-291600-
EAST-CENTRAL ILLINOIS

CITY           SKY/WX    TMP DP  RH WIND       PRES   REMARKS
CHAMPAIGN      SUNNY     69  57  65 NW12      30.10F
DANVILLE*      SUNNY     66  59  79 NW6       30.07S HAZE
RANTOUL*       SUNNY     70  57  63 NW8       30.10F
MATTOON        SUNNY     69  56  62 NW13      30.10S
PARIS*         SUNNY     68  58  72 NW5       30.10S
$$

ILZ079-100>102-291600-
SOUTHWEST ILLINOIS

CITY           SKY/WX    TMP DP  RH WIND       PRES   REMARKS
ALTON          SUNNY     70  61  73 W7        30.15S
BELLEVILLE     SUNNY     73  56  54 VRB2      30.14R
CAHOKIA*       SUNNY     73  54  51 W6        30.15
SPARTA*        SUNNY     68  54  60 CALM      30.15S
$$

ILZ064>066-069>071-074>076-080>082-084>086-088>090-092>094-291600-
SOUTH-CENTRAL ILLINOIS

CITY           SKY/WX    TMP DP  RH WIND       PRES   REMARKS
CARBONDALE     SUNNY     71  55  56 NW9       30.15R
CAIRO*         SUNNY     73  55  53 N3        30.15R
EFFINGHAM*     SUNNY     71  52  52 NW10      30.13R
MARION         SUNNY     70  55  60 N9        30.15S
MT. VERNON     SUNNY     70  55  60 NW5       30.15R
CENTRALIA*     SUNNY     75  55  50 N7        30.14R
SALEM*         SUNNY    N/A N/A N/A N8        30.14R
METROPOLIS*    SUNNY     71  51  49 CALM      30.13S
$$

ILZ067-068-072-073-078-083-087-091-291600-
SOUTHEAST ILLINOIS

CITY           SKY/WX    TMP DP  RH WIND       PRES   REMARKS
LAWRENCEVILLE  SUNNY     70  57  63 NW10      30.11S
FLORA*         SUNNY     69  55  61 NW10      30.13R
FAIRFIELD*     SUNNY     72  57  60 NW6       30.12S
HARRISBURG*    SUNNY     71  56  59 NW6       30.15R
ROBINSON*      SUNNY     70  59  68 NW9       30.11S
$$

ABBREVIATIONS USED IN REMARKS
   TC - TEMPERATURE IN CELSIUS
  WCI - WIND CHILL INDEX
   HX - HEAT INDEX
  VSB - VISIBILITY
$$



USA.gov is the U.S. government's official web portal to all federal, state and local government web resources and services.